Stations météo

réclame
Mon MeteoGroup
Fair Isle, Grande-Bretagne (3008): Température de l'air & dewpoint: 17.05.2018 19:00:00 - 23.05.2018 19:00:00 (BST)Fair Isle, Grande-Bretagne (3008): Température de l'air -20cm & Température de l'air -100cm: 17.05.2018 19:00:00 - 23.05.2018 19:00:00 (BST)Fair Isle, Grande-Bretagne (3008): Vitesse du vent & gusts: 17.05.2018 19:00:00 - 23.05.2018 19:00:00 (BST)Fair Isle, Grande-Bretagne (3008): Direction du vent: 17.05.2018 19:00:00 - 23.05.2018 19:00:00 (BST)Fair Isle, Grande-Bretagne (3008): reduced air pressure: 17.05.2018 19:00:00 - 23.05.2018 19:00:00 (BST)Fair Isle, Grande-Bretagne (3008): visibility: 17.05.2018 19:00:00 - 23.05.2018 19:00:00 (BST)Fair Isle, Grande-Bretagne (3008): Quantités de précipitations: 17.05.2018 19:00:00 - 23.05.2018 19:00:00 (BST)
Date & Time tt [°C] td [°C] tt -20cm [°C] tt -100cm [°C] ff [km/h] ff [knt] fx [km/h] fx [knt] dd ppp [hPa] vv [km] rr [mm]
23.05.2018 19:00:00 8,7 4,9 - - 11 6 - - SSW 1029,0 23 0,0
23.05.2018 18:00:00 9,2 5,6 - - 11 6 - - S 1028,9 40 0,0
23.05.2018 17:00:00 9,2 5,3 - - 9 5 - - SSW 1029,1 25 0,0
23.05.2018 16:00:00 9,3 5,1 - - 9 5 - - S 1029,4 28 0,0
23.05.2018 15:00:00 9,9 6,2 - - 11 6 - - W 1029,5 26 0,0
23.05.2018 14:00:00 9,7 5,8 - - 11 6 - - W 1029,5 22 0,0
23.05.2018 13:00:00 9,6 5,8 - - 11 6 - - W 1029,4 25 0,0
23.05.2018 12:00:00 8,5 4,7 - - 11 6 - - W 1029,4 30 0,0
23.05.2018 11:00:00 8,4 5,5 - - 9 5 - - WSW 1029,2 30 0,0
23.05.2018 10:00:00 8,5 5,4 9,9 9,0 9 5 - - W 1029,0 23 0,0
23.05.2018 09:00:00 8,3 5,2 - - 8 4 - - WNW 1028,9 30 0,0
23.05.2018 08:00:00 9,5 5,9 - - 4 2 - - ESE 1028,4 24 0,0
23.05.2018 07:00:00 8,6 6,3 - - 2 1 - - E - 25 0,0
23.05.2018 06:00:00 6,5 5,7 - - 9 5 - - NNW 1028,0 17 0,0
23.05.2018 05:00:00 6,3 5,6 - - 8 4 - - NNW 1027,9 11 0,0
23.05.2018 04:00:00 5,6 5,2 - - 9 5 - - NNW 1028,0 17 0,0
23.05.2018 03:00:00 5,7 3,9 - - 5 3 - - NNE 1028,0 25 0,0
23.05.2018 02:00:00 5,9 4,5 - - 8 4 - - NNE 1027,9 24 0,0
23.05.2018 01:00:00 6,6 5,2 - - 9 5 - - NNE 1027,9 21 0,0
23.05.2018 00:00:00 7,0 4,9 - - 11 6 - - NNE 1028,2 29 0,0
22.05.2018 23:00:00 7,0 5,7 - - 9 5 - - NNE 1028,1 20 0,0
22.05.2018 22:00:00 6,4 4,7 - - 11 6 - - NNE 1028,0 30 0,0
22.05.2018 21:00:00 7,9 4,9 - - 18 10 - - NNE 1027,7 30 0,0
22.05.2018 20:00:00 8,5 5,9 - - 21 11 - - NNE 1027,2 35 0,0
22.05.2018 19:00:00 9,1 5,6 - - 24 13 - - NNE 1027,4 40 0,0
22.05.2018 18:00:00 9,0 6,0 - - 18 10 - - NE 1027,3 30 0,0
22.05.2018 17:00:00 9,4 5,7 - - 26 14 - - NNE 1027,8 26 0,0
22.05.2018 16:00:00 9,6 5,0 - - 28 15 - - NNE 1027,9 30 0,0
22.05.2018 15:00:00 9,5 5,7 - - 29 16 - - NNE 1027,7 35 0,0
22.05.2018 14:00:00 9,7 6,0 - - 29 16 - - NNE 1027,7 30 0,0
22.05.2018 13:00:00 9,4 5,5 - - 34 18 - - NNE 1027,5 30 0,0
22.05.2018 12:00:00 9,4 5,4 - - 31 17 - - NNE 1027,4 30 0,0
22.05.2018 11:00:00 9,2 5,0 - - 34 18 46 25 NNE 1027,4 35 0,0
22.05.2018 10:00:00 9,5 6,0 10,0 9,0 26 14 - - NNE 1027,3 40 0,0
22.05.2018 09:00:00 8,2 5,5 - - 26 14 - - N 1027,2 40 0,0
22.05.2018 08:00:00 7,9 5,4 - - 29 16 48 26 N 1027,0 50 0,0
22.05.2018 07:00:00 7,5 5,0 - - 35 19 - - N 1026,8 45 0,0
22.05.2018 06:00:00 7,1 5,4 - - 28 15 - - N 1026,7 30 0,0
22.05.2018 05:00:00 6,9 5,5 - - 26 14 - - N 1026,4 30 0,0
22.05.2018 04:00:00 7,0 5,3 - - 26 14 - - N 1026,3 40 0,0
22.05.2018 03:00:00 6,9 5,2 - - 28 15 - - N 1025,6 27 0,0
22.05.2018 02:00:00 6,9 5,3 - - 26 14 - - N 1025,3 25 0,0
22.05.2018 01:00:00 6,8 5,0 - - 31 17 46 25 N 1025,0 25 0,0
22.05.2018 00:00:00 6,7 5,2 - - 28 15 50 27 N 1024,6 26 0,0
21.05.2018 23:00:00 6,6 5,7 - - 34 18 54 29 NNW 1024,1 22 0,0
21.05.2018 22:00:00 6,8 6,4 - - 31 17 59 32 NNW 1023,6 7 0,0
21.05.2018 21:00:00 6,9 6,7 - - 35 19 54 29 NNW 1022,7 17 0,2
21.05.2018 20:00:00 7,0 6,8 - - 34 18 54 29 NNW 1021,7 4,0 0,0
21.05.2018 19:00:00 7,0 7,0 - - 35 19 48 26 NNW 1020,5 4,9 0,0
21.05.2018 18:00:00 7,5 7,5 - - 29 16 - - NNW 1019,9 3,1 0,0
21.05.2018 17:00:00 8,4 8,4 - - 8 4 - - WNW 1019,8 0,2 0,0
21.05.2018 16:00:00 8,6 8,6 - - 4 2 - - WSW 1019,3 0,6 0,0
21.05.2018 15:00:00 8,3 8,3 - - 9 5 - - S 1019,1 3,0 0,0
21.05.2018 14:00:00 8,5 8,5 - - 11 6 - - S 1019,0 4,3 0,0
21.05.2018 13:00:00 8,4 8,4 - - 15 8 - - S 1018,9 1,2 0,0
21.05.2018 12:00:00 8,2 8,2 - - 18 10 - - S 1018,8 2,8 0,0
21.05.2018 11:00:00 7,8 7,8 - - 21 11 - - S 1018,7 0,4 0,0
21.05.2018 10:00:00 7,9 7,9 10,2 8,9 24 13 - - S 1018,6 0,1 0,0
21.05.2018 09:00:00 8,1 8,1 - - 22 12 - - S 1018,3 1,1 0,2
21.05.2018 08:00:00 7,9 7,9 - - 21 11 - - SSE 1018,1 0,1 0,2
21.05.2018 07:00:00 8,5 8,5 - - 15 8 - - S 1017,6 0,4 1,2
21.05.2018 06:00:00 8,3 8,3 - - 16 9 - - SSE 1017,6 0,1 1,8
21.05.2018 05:00:00 8,7 8,7 - - 15 8 - - S 1017,4 0,4 1,4
21.05.2018 04:00:00 8,6 8,6 - - 15 8 - - SSE 1017,5 0,5 0,6
21.05.2018 03:00:00 8,7 8,6 - - 9 5 - - SE 1017,6 1,7 0,0
21.05.2018 02:00:00 9,3 8,6 - - 15 8 - - SSE 1017,7 7 0,0
21.05.2018 01:00:00 9,3 8,3 - - 8 4 - - SSE 1017,5 4,9 0,0
21.05.2018 00:00:00 9,6 8,5 - - 11 6 - - SSW 1017,3 8 0,0
20.05.2018 23:00:00 9,6 8,5 - - 15 8 - - SSW 1017,0 9 0,0
20.05.2018 22:00:00 9,7 8,4 - - 16 9 - - SSW 1016,7 8 0,0
20.05.2018 21:00:00 9,9 8,4 - - 13 7 - - S 1016,5 9 0,0
20.05.2018 20:00:00 10,1 8,5 - - 16 9 - - WSW 1016,1 9 0,0
20.05.2018 19:00:00 9,9 8,6 - - 22 12 - - SW 1015,3 10 0,0
20.05.2018 18:00:00 10,5 8,7 - - 34 18 - - S 1014,7 11 0,0
20.05.2018 17:00:00 10,7 8,5 - - 31 17 48 26 S 1014,7 10 0,0
20.05.2018 16:00:00 10,5 8,0 - - 34 18 - - S 1014,5 10 0,0
20.05.2018 15:00:00 11,3 8,3 - - 37 20 50 27 S 1014,6 12 0,0
20.05.2018 14:00:00 10,6 8,5 - - 31 17 - - S 1014,6 8 0,0
20.05.2018 13:00:00 11,5 8,7 - - 31 17 46 25 S 1014,5 12 0,0
20.05.2018 12:00:00 11,2 8,8 - - 31 17 - - S 1014,4 11 0,0
20.05.2018 11:00:00 10,1 8,2 - - 31 17 - - S 1014,4 10 0,0
20.05.2018 10:00:00 10,2 8,0 10,2 8,7 34 18 - - S 1014,6 12 0,0
20.05.2018 09:00:00 10,6 8,1 - - 35 19 48 26 S 1014,4 13 0,0
20.05.2018 08:00:00 9,8 7,9 - - 31 17 - - S 1014,0 13 0,0
20.05.2018 07:00:00 9,6 8,1 - - 28 15 - - S 1013,8 12 0,2
20.05.2018 06:00:00 9,5 7,8 - - 29 16 - - S 1013,5 10 0,0
20.05.2018 05:00:00 9,9 7,6 - - 28 15 46 25 S 1013,2 14 0,0
20.05.2018 04:00:00 10,1 7,6 - - 34 18 46 25 S 1013,1 12 0,0
20.05.2018 03:00:00 9,9 7,6 - - 31 17 - - S 1013,1 11 0,0
20.05.2018 02:00:00 9,8 7,5 - - 34 18 46 25 S 1013,3 12 0,0
20.05.2018 01:00:00 9,2 7,7 - - 29 16 - - S 1013,9 10 0,0
20.05.2018 00:00:00 9,3 7,8 - - 31 17 50 27 S 1014,4 10 0,0
19.05.2018 23:00:00 9,6 7,9 - - 37 20 50 27 S 1014,6 10 0,0
19.05.2018 22:00:00 9,6 7,9 - - 35 19 50 27 S 1015,1 10 0,0
19.05.2018 21:00:00 9,8 7,8 - - 37 20 50 27 S 1015,1 11 0,0
19.05.2018 20:00:00 9,7 7,9 - - 31 17 50 27 SSE 1015,6 12 0,0
19.05.2018 19:00:00 9,6 8,2 - - 34 18 46 25 SSE 1016,2 11 0,0
19.05.2018 18:00:00 9,9 8,1 - - 31 17 - - SSE 1017,0 13 0,0
19.05.2018 17:00:00 10,9 8,6 - - 28 15 - - SSE 1017,9 12 0,0
19.05.2018 16:00:00 12,0 9,6 - - 29 16 - - SSE 1018,2 20 0,0
19.05.2018 15:00:00 11,5 9,2 - - 24 13 - - SSE 1018,5 21 0,0
19.05.2018 14:00:00 10,8 9,1 - - 26 14 - - SSE 1018,9 13 0,0
19.05.2018 13:00:00 10,4 8,8 - - 22 12 - - SSE 1019,4 17 0,0
19.05.2018 12:00:00 10,7 8,9 - - 21 11 - - SSE 1020,0 17 0,0
19.05.2018 11:00:00 10,9 9,0 - - 24 13 - - SSE 1020,6 15 0,0
19.05.2018 10:00:00 10,0 8,5 9,9 8,7 24 13 - - SSE 1020,7 15 0,0
19.05.2018 09:00:00 9,2 8,3 - - 22 12 - - SSE 1021,0 17 0,0
19.05.2018 08:00:00 8,9 8,6 - - 18 10 - - SSE 1021,0 14 0,0
19.05.2018 07:00:00 8,4 8,1 - - 11 6 - - SE 1021,0 11 0,0
19.05.2018 06:00:00 8,3 8,0 - - 9 5 - - ESE 1021,1 14 0,0
19.05.2018 05:00:00 8,2 8,0 - - 9 5 - - ESE 1021,3 13 0,0
19.05.2018 04:00:00 8,1 7,8 - - 9 5 - - ESE 1021,6 13 0,0
19.05.2018 03:00:00 8,1 7,8 - - 5 3 - - ESE 1022,1 11 0,0
19.05.2018 02:00:00 7,5 7,0 - - 2 1 - - ESE 1022,3 12 0,0
19.05.2018 01:00:00 7,8 7,3 - - 5 3 - - SSE 1022,5 12 0,0
19.05.2018 00:00:00 8,1 7,5 - - 5 3 - - SSE 1022,8 13 0,0
18.05.2018 23:00:00 8,5 7,9 - - 4 2 - - SSE 1023,1 14 0,0
18.05.2018 22:00:00 8,5 7,9 - - 8 4 - - S 1023,1 14 0,0
18.05.2018 21:00:00 8,7 7,8 - - 5 3 - - S 1023,0 18 0,0
18.05.2018 20:00:00 8,9 7,7 - - 11 6 - - SSW 1023,0 19 0,0
18.05.2018 19:00:00 9,1 7,7 - - 15 8 - - S 1022,9 18 0,0
18.05.2018 18:00:00 8,9 7,9 - - 13 7 - - S 1023,0 16 0,0
18.05.2018 17:00:00 9,6 8,2 - - 15 8 - - SSW 1023,1 14 0,0
18.05.2018 16:00:00 9,4 8,1 - - 16 9 - - S 1023,2 14 0,0
18.05.2018 15:00:00 9,5 7,9 - - 15 8 - - S 1023,3 12 0,0
18.05.2018 14:00:00 10,5 8,4 - - 18 10 - - S 1023,3 16 0,0
18.05.2018 13:00:00 10,1 7,7 - - 24 13 - - S 1023,2 14 0,0
18.05.2018 12:00:00 10,0 7,7 - - 21 11 - - S 1023,5 16 0,0
18.05.2018 11:00:00 9,4 7,5 - - 22 12 - - SSE 1023,6 17 0,0
18.05.2018 10:00:00 9,5 8,2 9,9 8,7 18 10 - - SE 1023,8 14 0,0
18.05.2018 09:00:00 9,2 8,5 - - 16 9 - - SE 1024,1 12 0,0
18.05.2018 08:00:00 8,4 8,1 - - 15 8 - - SE 1024,3 11 0,0
18.05.2018 07:00:00 7,8 7,7 - - 15 8 - - SE 1024,3 11 0,0
18.05.2018 06:00:00 7,1 7,1 - - 13 7 - - SSE 1024,7 7 0,0
18.05.2018 05:00:00 6,1 6,1 - - 11 6 - - S 1025,3 4,2 0,0
18.05.2018 04:00:00 5,8 5,6 - - 13 7 - - S 1025,6 2,7 0,0
18.05.2018 03:00:00 7,0 6,8 - - 8 4 - - SE 1025,8 10 0,0
18.05.2018 02:00:00 6,8 6,5 - - 8 4 - - SE 1026,2 11 0,0
18.05.2018 01:00:00 6,8 6,6 - - 4 2 - - ESE 1026,5 10 0,0
18.05.2018 00:00:00 5,8 5,6 - - 0 0 - - N 1027,1 12 0,0
17.05.2018 23:00:00 5,9 5,4 - - 0 0 - - N 1027,6 10 0,0
17.05.2018 22:00:00 6,4 5,6 - - 2 1 - - N 1027,9 10 0,0
17.05.2018 21:00:00 7,9 6,2 - - 8 4 - - NNE 1027,7 12 0,0
17.05.2018 20:00:00 9,2 7,0 - - 8 4 - - WNW 1027,9 12 0,0
17.05.2018 19:00:00 9,6 7,0 - - 8 4 - - NW 1028,2 17 0,0

tt = Température de l'air
td = dewpoint
tt -20cm = Température de l'air -20cm
tt -100cm = Température de l'air -100cm
ff = Vitesse du vent
fx = gusts
dd = Direction du vent
ppp = reduced air pressure
vv = visibility
rr = Quantités de précipitations

stations d'obs. à proximité